User: anonymous   Login
Location: Bailleul
(50.3375°N, 2.8513°E)
Time: 13:55:48
(UTC+00:00)
Language:

ATLAS 5 CENTAUR R/B - Orbit

View from above orbital plane
View from above orbital plane
View from above satellite
View from above satellite

Ground track
Ground track

The orbit data is extracted from the following two-line orbital elements,

1 31702U 07027B   21169.05164716 0.00000200  00000-0  36127-4 0    06
2 31702  63.3482 276.0722 0437883  19.7381 340.2618 14.18952008    01
Epoch (UTC): 18 June 2021 01:14:22
Eccentricity: 0.0437883
inclination: 63.3482°
perigee height: 513 km
apogee height: 1144 km
right ascension of ascending node: 276.0722°
argument of perigee: 19.7381°
revolutions per day: 14.18952008
mean anomaly at epoch: 340.2618°
orbit number at epoch: 0

The dashed part of the orbit path shows where the satellite is in the earth's shadow,  

DLR